When you browse on this site, cookies collect data to enhance your experience and personalize the content and advertising you see.
Visit our Privacy Policy to learn more. By continuing to use the site, you agree to this use of cookies and data.
  • In Netherlands
  • List of Countries
  • For 7 days
  • Water Temperature
  • Satellite Maps
  • Weather Map
  • Weather Widgets
  • user-avatar
    Login

    Hourly Weather Ganja

    Today, 20 November, Tuesday

    Time Temperature Precipitation Wind Pressure Humidity
    00:00 +7°C° 0 mm 1 mps 730 mmHg 70%
    01:00 +7°C° 0 mm 1 mps 730 mmHg 71%
    02:00 +7°C° 0 mm 1 mps 730 mmHg 71%
    03:00 +7°C° 0 mm 1 mps 729 mmHg 72%
    04:00 +7°C° 0 mm 1 mps 729 mmHg 70%
    05:00 +7°C° 0 mm 1 mps 729 mmHg 69%
    06:00 +6°C° 0 mm 2 mps 729 mmHg 68%
    07:00 +7°C° 0 mm 2 mps 729 mmHg 63%
    08:00 +8°C° 0 mm 2 mps 728 mmHg 57%
    09:00 +10°C° 0 mm 2 mps 728 mmHg 51%
    10:00 +12°C° 0 mm 2 mps 728 mmHg 47%
    11:00 +13°C° 0 mm 2 mps 727 mmHg 44%
    12:00 +14°C° 0 mm 2 mps 727 mmHg 40%
    13:00 +14°C° 0 mm 2 mps 726 mmHg 41%
    14:00 +15°C° 0 mm 2 mps 726 mmHg 41%
    15:00 +15°C° 0 mm 2 mps 725 mmHg 41%
    16:00 +14°C° 0 mm 2 mps 725 mmHg 44%
    17:00 +13°C° 0 mm 2 mps 726 mmHg 48%
    18:00 +12°C° 0 mm 2 mps 726 mmHg 51%
    19:00 +11°C° 0 mm 3 mps 725 mmHg 52%
    20:00 +11°C° 0 mm 3 mps 725 mmHg 52%
    21:00 +10°C° 0 mm 3 mps 725 mmHg 52%
    22:00 +10°C° 0 mm 3 mps 725 mmHg 52%
    23:00 +10°C° 0 mm 3 mps 725 mmHg 53%

    Tomorrow, 21 November, Wednesday

    Time Temperature Precipitation Wind Pressure Humidity
    00:00 +10°C° 0 mm 3 mps 725 mmHg 53%
    01:00 +10°C° 0 mm 3 mps 724 mmHg 55%
    02:00 +10°C° 0 mm 3 mps 724 mmHg 56%
    03:00 +10°C° 0 mm 4 mps 724 mmHg 58%
    04:00 +8°C° 0 mm 4 mps 724 mmHg 59%
    05:00 +9°C° 0 mm 3 mps 724 mmHg 61%
    06:00 +9°C° 0 mm 3 mps 724 mmHg 62%
    07:00 +10°C° 0 mm 3 mps 724 mmHg 59%
    08:00 +11°C° 0 mm 3 mps 724 mmHg 56%
    09:00 +14°C° 0 mm 2 mps 724 mmHg 52%
    10:00 +14°C° 0 mm 2 mps 724 mmHg 50%
    11:00 +15°C° 0 mm 2 mps 723 mmHg 48%
    12:00 +16°C° 0 mm 1 mps 723 mmHg 46%
    13:00 +16°C° 0 mm 2 mps 723 mmHg 48%
    14:00 +15°C° 0 mm 2 mps 723 mmHg 50%
    15:00 +15°C° 0 mm 2 mps 723 mmHg 52%
    16:00 +14°C° 0.1 mm 2 mps 723 mmHg 57%
    17:00 +13°C° 0.1 mm 2 mps 723 mmHg 62%
    18:00 +12°C° 0.1 mm 2 mps 724 mmHg 67%
    19:00 +10°C° 0.2 mm 2 mps 724 mmHg 70%
    20:00 +10°C° 0.2 mm 2 mps 724 mmHg 73%
    21:00 +9°C° 0.2 mm 2 mps 724 mmHg 77%
    22:00 +9°C° 0.1 mm 2 mps 724 mmHg 79%
    23:00 +9°C° 0.1 mm 2 mps 724 mmHg 81%

    Day after tomorrow, 22 November, Thursday

    Time Temperature Precipitation Wind Pressure Humidity
    00:00 +8°C° 0.1 mm 2 mps 724 mmHg 84%
    01:00 +8°C° 0 mm 2 mps 724 mmHg 85%
    02:00 +8°C° 0 mm 2 mps 724 mmHg 86%
    03:00 +8°C° 0 mm 2 mps 724 mmHg 88%
    04:00 +8°C° 0 mm 2 mps 724 mmHg 88%
    05:00 +9°C° 0 mm 1 mps 724 mmHg 89%
    06:00 +8°C° 0 mm 1 mps 724 mmHg 89%
    07:00 +9°C° 0 mm 1 mps 724 mmHg 86%
    08:00 +10°C° 0 mm 1 mps 724 mmHg 83%
    09:00 +10°C° 0 mm 1 mps 724 mmHg 80%
    10:00 +10°C° 0 mm 2 mps 724 mmHg 78%
    11:00 +10°C° 0 mm 2 mps 724 mmHg 76%
    12:00 +12°C° 0 mm 2 mps 723 mmHg 73%
    13:00 +10°C° 0.1 mm 2 mps 723 mmHg 73%
    14:00 +11°C° 0.1 mm 1 mps 723 mmHg 73%
    15:00 +11°C° 0.1 mm 1 mps 722 mmHg 73%
    16:00 +11°C° 0 mm 1 mps 723 mmHg 76%
    17:00 +10°C° 0 mm 1 mps 723 mmHg 79%
    18:00 +9°C° 0 mm 0 mps 723 mmHg 83%
    19:00 +8°C° 0 mm 0 mps 723 mmHg 84%
    20:00 +8°C° 0 mm 0 mps 724 mmHg 86%
    21:00 +8°C° 0 mm 0 mps 724 mmHg 87%
    22:00 +8°C° 0 mm 0 mps 724 mmHg 87%
    23:00 +9°C° 0 mm 1 mps 724 mmHg 87%

    23 November, Friday

    Time Temperature Precipitation Wind Pressure Humidity
    00:00 +8°C° 0 mm 1 mps 724 mmHg 87%
    01:00 +8°C° 0 mm 1 mps 724 mmHg 86%
    02:00 +8°C° 0 mm 1 mps 723 mmHg 85%
    03:00 +8°C° 0 mm 1 mps 723 mmHg 84%
    04:00 +8°C° 0 mm 1 mps 723 mmHg 83%
    05:00 +8°C° 0 mm 1 mps 723 mmHg 82%
    06:00 +9°C° 0 mm 1 mps 723 mmHg 81%
    07:00 +9°C° 0 mm 1 mps 724 mmHg 77%
    08:00 +10°C° 0 mm 1 mps 724 mmHg 73%
    09:00 +11°C° 0 mm 1 mps 724 mmHg 69%
    10:00 +12°C° 0 mm 1 mps 724 mmHg 66%
    11:00 +13°C° 0 mm 2 mps 724 mmHg 62%
    12:00 +13°C° 0 mm 2 mps 723 mmHg 58%
    13:00 +14°C° 0 mm 2 mps 723 mmHg 58%
    14:00 +14°C° 0 mm 2 mps 723 mmHg 58%
    15:00 +14°C° 0 mm 2 mps 723 mmHg 58%
    16:00 +13°C° 0 mm 2 mps 724 mmHg 63%
    17:00 +12°C° 0 mm 2 mps 724 mmHg 68%
    18:00 +11°C° 0 mm 1 mps 725 mmHg 73%
    19:00 +11°C° 0.1 mm 1 mps 726 mmHg 74%
    20:00 +11°C° 0.1 mm 1 mps 726 mmHg 75%
    21:00 +10°C° 0.1 mm 0 mps 727 mmHg 76%
    22:00 +10°C° 0.3 mm 1 mps 727 mmHg 77%
    23:00 +9°C° 0.3 mm 2 mps 728 mmHg 79%

    24 November, Saturday

    Time Temperature Precipitation Wind Pressure Humidity
    00:00 +9°C° 0.3 mm 2 mps 729 mmHg 80%
    01:00 +8°C° 0.2 mm 2 mps 729 mmHg 82%
    02:00 +8°C° 0.2 mm 2 mps 729 mmHg 84%
    03:00 +8°C° 0.2 mm 2 mps 730 mmHg 85%
    04:00 +8°C° 0.1 mm 2 mps 730 mmHg 87%
    05:00 +7°C° 0.1 mm 2 mps 731 mmHg 88%
    06:00 +7°C° 0.1 mm 2 mps 731 mmHg 90%
    07:00 +7°C° 0.1 mm 3 mps 732 mmHg 88%
    08:00 +6°C° 0.1 mm 4 mps 733 mmHg 85%
    09:00 +6°C° 0.1 mm 4 mps 734 mmHg 83%
    10:00 +6°C° 0.1 mm 5 mps 734 mmHg 81%
    11:00 +6°C° 0.1 mm 5 mps 734 mmHg 78%
    12:00 +5°C° 0.1 mm 6 mps 734 mmHg 76%
    13:00 +5°C° 0 mm 6 mps 734 mmHg 75%
    14:00 +5°C° 0 mm 6 mps 734 mmHg 75%
    15:00 +6°C° 0 mm 5 mps 735 mmHg 75%
    16:00 +5°C° 0 mm 5 mps 735 mmHg 78%
    17:00 +5°C° 0 mm 4 mps 735 mmHg 80%
    18:00 +4°C° 0 mm 4 mps 736 mmHg 83%
    19:00 +4°C° 0 mm 3 mps 736 mmHg 84%
    20:00 +4°C° 0 mm 3 mps 736 mmHg 86%
    21:00 +5°C° 0 mm 2 mps 736 mmHg 87%
    22:00 +4°C° 0 mm 2 mps 736 mmHg 89%
    23:00 +5°C° 0 mm 1 mps 735 mmHg 90%

    25 November, Sunday

    Time Temperature Precipitation Wind Pressure Humidity
    00:00 +4°C° 0 mm 0 mps 735 mmHg 91%
    01:00 +5°C° 0 mm 1 mps 734 mmHg 91%
    02:00 +5°C° 0 mm 1 mps 734 mmHg 91%
    03:00 +5°C° 0 mm 1 mps 733 mmHg 92%
    04:00 +5°C° 0 mm 1 mps 733 mmHg 91%
    05:00 +4°C° 0 mm 1 mps 733 mmHg 90%
    06:00 +4°C° 0 mm 1 mps 732 mmHg 89%
    07:00 +5°C° 0 mm 1 mps 732 mmHg 84%
    08:00 +6°C° 0 mm 1 mps 731 mmHg 79%
    09:00 +7°C° 0 mm 1 mps 731 mmHg 74%
    10:00 +8°C° 0 mm 1 mps 730 mmHg 70%
    11:00 +9°C° 0 mm 1 mps 729 mmHg 66%
    12:00 +9°C° 0 mm 2 mps 728 mmHg 62%
    13:00 +9°C° 0 mm 2 mps 728 mmHg 61%
    14:00 +10°C° 0 mm 1 mps 727 mmHg 61%
    15:00 +11°C° 0 mm 1 mps 726 mmHg 60%
    16:00 +10°C° 0 mm 1 mps 726 mmHg 64%
    17:00 +9°C° 0 mm 1 mps 727 mmHg 67%
    18:00 +8°C° 0 mm 1 mps 727 mmHg 71%
    19:00 +8°C° 0 mm 1 mps 727 mmHg 71%
    20:00 +8°C° 0 mm 1 mps 726 mmHg 72%
    21:00 +8°C° 0 mm 1 mps 726 mmHg 72%
    22:00 +8°C° 0 mm 1 mps 726 mmHg 72%
    23:00 +7°C° 0 mm 1 mps 726 mmHg 73%
    Show more